Regional Weather Roundup
Issued by NWS

Home | Current Version | Previous Version | Text Only | Print | Product List | Glossary On
Versions: 1 2 3 4 5 6 7 8 9 10 11 12 13 14 15 16 17 18 19 20 21 22 23 24 25 26 27 28
000
ASUS43 KDMX 302107
RWRIA

WEATHER ROUNDUP FOR IOWA
NATIONAL WEATHER SERVICE DES MOINES IA
400 PM CDT THU OCT 30 2014

NOTE: "FAIR" INDICATES FEW OR NO CLOUDS BELOW 12,000 FEET WITH NO
SIGNIFICANT WEATHER AND/OR OBSTRUCTIONS TO VISIBILITY.

* - THESE STATIONS ARE NOT NWS STATIONS...THUS NOT UNDER NWS
QUALITY CONTROL.  THEY ALSO DO NOT REPORT WEATHER SUCH
AS PRECIPITATION OR FOG.

IAZ001>003-012>014-020>022-031>034-043>046-302200-
   NORTHWEST IOWA

CITY           SKY/WX    TMP DP  RH WIND       PRES   REMARKS
CARROLL *      SUNNY     59  37  44 N17G25    30.05R
CHEROKEE *     PTSUNNY   57  39  51 N20G26    30.10R
DENISON *      MOSUNNY   59  39  47 N15G25    30.05R
LE MARS *      SUNNY     57  41  54 NW22G28   30.13R
ORANGE CITY *  PTSUNNY   57  36  44 N14       30.12R
SHELDON *      CLOUDY    55  37  50 N20G26    30.12R
SIOUX CITY     MOSUNNY   57  42  57 NW23G32   30.12R
SPENCER        CLOUDY    54  38  54 N20       30.12R
STORM LAKE *   PTSUNNY   57  36  44 N15G24    30.10R
$$

IAZ055>058-069>071-079>083-090>094-302200-
   SOUTHWEST IOWA

CITY           SKY/WX    TMP DP  RH WIND       PRES   REMARKS
ATLANTIC *     SUNNY     61  39  44 NW20G26   30.04R
AUDUBON *      SUNNY     61  32  33 N20       30.06R
CLARINDA *     SUNNY     64  37  36 NW14G25   30.06R
COUNCIL BLFS * PTSUNNY   63  41  45 NW12G25   30.07R
CRESTON *      SUNNY     61  37  41 N17G24    30.03R
HARLAN  *      SUNNY     61  41  48 NW25G32   30.09R
LAMONI         SUNNY     62  42  47 NW12      30.00R
RED OAK *      SUNNY     63  39  42 NW16G29   30.06R
SHENANDOAH *   SUNNY     64  41  42 NW17G29   30.07R
$$

IAZ047>049-059>061-072>074-084-302200-
   CENTRAL IOWA

CITY           SKY/WX    TMP DP  RH WIND       PRES   REMARKS
AMES           SUNNY     61  38  42 N10       30.02R
ANKENY *       MOSUNNY   61  39  44 NW5G12    30.02R
CHARITON *     MOSUNNY   61  39  44 N7G13     30.00R
DES MOINES     MOSUNNY   63  39  41 N9        30.02R
GRINNELL*      CLOUDY    59  36  41 NE3       30.03R
KNOXVILLE *    PTSUNNY   61  37  41 N10       30.00R
MARSHALLTOWN   CLOUDY    59  37  44 E7        30.02R
PELLA *        MOSUNNY   61  39  44 NE3       30.03R
PERRY *          N/A     61  37  41 N14       30.04R
$$

IAZ004>006-015-016-023>025-035-036-302200-
   NORTH CENTRAL IOWA

CITY           SKY/WX    TMP DP  RH WIND       PRES   REMARKS
ALGONA *       SUNNY     55  36  47 N14G21    30.08R
CLARION *      SUNNY     57  37  47 NE8       30.05R
ESTHERVILLE    CLOUDY    52  38  58 N22       30.11R
FORT DODGE *   SUNNY     55  37  50 N8        30.06R
MASON CITY     CLOUDY    53  38  56 N5        30.08R
FOREST CITY *  CLOUDY    52  37  58 N8        30.07R
IOWA FALLS *     N/A     59  36  41 NE5       30.04R
$$

IAZ007>011-017>019-026>030-037>042-050>054-066-302200-
   NORTHEAST IOWA

CITY           SKY/WX    TMP DP  RH WIND       PRES   REMARKS
CEDAR RAPIDS   CLOUDY    53  38  56 E7        30.03R
CHARLES CITY * CLOUDY    50  37  62 N5        30.07R
CLINTON *      PTSUNNY   52  36  54 CALM      30.08R
DECORAH *      CLOUDY    48  39  71 CALM      30.05S
DUBUQUE        CLOUDY    49  37  63 CALM      30.06R
MONTICELLO *   CLOUDY    52  37  58 CALM      30.05R
OELWEIN *      CLOUDY    54  36  50 CALM      30.05S
WATERLOO       MOSUNNY   55  36  48 SE5       30.04R
$$

IAZ064-065-067-068-078-302200-
   EAST CENTRAL IOWA

CITY           SKY/WX    TMP DP  RH WIND       PRES   REMARKS
DAVENPORT      CLOUDY    51  35  54 SE6       30.05R
IOWA CITY      CLOUDY    55  36  48 SE7       30.04S
MT. PLEASANT * MOSUNNY   59  39  47 E5        30.01R
MUSCATINE *    MOSUNNY   55  36  47 SE8       30.04R
QUAD CITIES    CLOUDY    52  38  58 SE5       30.04S
$$

IAZ062-063-075>077-085>089-095>099-302200-
   SOUTHEAST IOWA

CITY           SKY/WX    TMP DP  RH WIND       PRES   REMARKS
BURLINGTON     SUNNY     56  40  55 VRB7      30.01R
FAIRFIELD *    MOSUNNY   57  39  51 NE9       30.00S
FORT MADISON * SUNNY     59  43  55 E6        30.01R HAZE
KEOKUK *       SUNNY     59  43  55 E5        29.99R
OSKALOOSA *    CLOUDY    59  37  44 NE6       30.01R
CENTERVILLE *  SUNNY     61  39  44 N6        30.01R
OTTUMWA        MOSUNNY   60  38  43 NE8       29.98F
WASHINGTON *   CLOUDY    57  37  47 E8        30.02R
$$

ABBREVIATIONS USED IN REMARKS
   TC - TEMPERATURES IN CELSIUS
  WCI - WIND CHILL INDEX
   HX - HEAT INDEX
  VSB - VISIBILITY
$$




USA.gov is the U.S. government's official web portal to all federal, state and local government web resources and services.